"Pseudo-MPEC" for P12pfyV

Created 2026 Aug 14 23:35:14 UT using Find_Orb

Click here for an explanation of pseudo-MPECs

 
 Astrometry: 
     P12pfyV*0C2026 08 12.41567821 32 08.287-17 31 36.30   ~8CDZ 21.12wXNEOCPF51
     P12pfyV 0C2026 08 12.42682621 32 00.779-17 31 14.91   ~8CDZ 20.88wXNEOCPF51
     P12pfyV 0C2026 08 12.44917521 31 45.767-17 30 32.01   ~8CDZ 20.98wXNEOCPF51
     P12pfyV 0C2026 08 12.56431521 30 29.117-17 26 42.73   ~8CKo 20.53GVNEOCPF51
     P12pfyV 0C2026 08 12.56496421 30 28.652-17 26 41.31   ~8CKo 20.70GVNEOCPF51
     P12pfyV KC2026 08 14.46417621 11 36.473-16 23 42.40   ~8EBo 21.1 GWNEOCP474
     P12pfyV KC2026 08 14.46928121 11 33.478-16 23 32.42   ~8EBo 21.3 GWNEOCP474
     P12pfyV KC2026 08 14.47438721 11 30.487-16 23 22.99   ~8EBo 21.1 GWNEOCP474
     P12pfyV KC2026 08 14.47948721 11 27.480-16 23 12.95   ~8EBo 20.9 GWNEOCP474

Station data:
(474) Mount John Observatory, Lake Tekapo  (S43.987385 E170.464960)  New
   Zealand.  Observers A. C. Gilmore, P. M. Kilmartin. Measurer P. M.
   Kilmartin. 1.0-m f/7.7 reflector + CCD.
(F51) Pan-STARRS 1, Haleakala  (N20.707234 W156.255910)  US/Hawaii.
   Observers J. Herman, T. Lowe, P. Minguez, A. Schultz, I. Smith. Measurers
   K. Chambers, T. de Boer, J. Fairlamb, H. Gao, M. Huber, C.-C. Lin, E.
   Magnier, Y. Ramanjooloo, R. Wainscoat, R. Weryk. 1.8-m Ritchey-Chrétien +
   CCD.

Orbital elements:  P12pfyV
   Perihelion 2026 Apr 25.408769 +/- 0.878 TT =  9:48:37.6 (JD 2461155.908769)
Epoch 2026 Aug 14.0 TT = JDT 2461266.5   Earth MOID: 0.0600      AutoNEOCP
M 140.979526848 +/- 0.9             (J2000 ecliptic)
n   1.274780340 +/- 0.00157         Peri.  198.935581 +/- 0.29
a   0.842388593 +/- 0.000693        Node   320.822571 +/- 0.008
e   0.38142401 +/- 0.00567          Incl.   10.346776 +/- 0.20
P   0.773/282.396d         H 25.30  G  0.15   U  8.5
q 0.521081350 +/- 0.0052    Q 1.163695837 +/- 0.00384
From 9 observations 2026 Aug. 12-14; mean residual 0".13
Residuals in arcseconds: 
260812 F51  .07+  .01+    260812 F51  .28+  .04-    260814 474  .01-  .18+    
260812 F51  .09-  .08+    260812 F51  .27-  .06+    260814 474  .12+  .20-    
260812 F51  .02+  .11-    260814 474  .07-  .01+    260814 474  .04-  .01+    

Ephemerides (geocentric):
Date (UTC) HH   RA             Dec           delta  r     elong  mag " sig PA
---- --------  ------------   ------------  ------ ------ -----  --- --------
2026 08 15 00  21 06 38.342   -16 06 57.03  .11509 1.1271 172.5 21.4 4.02  91
2026 08 15 01  21 06 15.689   -16 05 36.25  .11523 1.1272 172.3 21.4 4.38  92
2026 08 15 02  21 05 53.100   -16 04 15.51  .11537 1.1273 172.2 21.4 4.75  93
2026 08 15 03  21 05 30.573   -16 02 54.81  .11552 1.1274 172.1 21.4 5.12  93
2026 08 15 04  21 05 08.109   -16 01 34.15  .11566 1.1275 172.0 21.4 5.50  94
2026 08 15 05  21 04 45.708   -16 00 13.54  .11580 1.1276 171.9 21.4 5.89  94
2026 08 15 06  21 04 23.370   -15 58 52.98  .11594 1.1277 171.7 21.4 6.29  95
2026 08 15 07  21 04 01.095   -15 57 32.46  .11609 1.1278 171.6 21.4 6.69  95
2026 08 15 08  21 03 38.882   -15 56 11.99  .11623 1.1279 171.5 21.4 7.11  96
2026 08 15 09  21 03 16.732   -15 54 51.57  .11638 1.1280 171.4 21.4 7.53  96
2026 08 15 10  21 02 54.644   -15 53 31.20  .11652 1.1281 171.2 21.4 7.95  96
2026 08 15 11  21 02 32.619   -15 52 10.88  .11666 1.1282 171.1 21.5 8.39  97
2026 08 15 12  21 02 10.657   -15 50 50.61  .11681 1.1283 171.0 21.5 8.83  97
2026 08 15 13  21 01 48.756   -15 49 30.40  .11696 1.1284 170.9 21.5 9.28  97
2026 08 15 14  21 01 26.919   -15 48 10.25  .11710 1.1285 170.8 21.5 9.74  97
2026 08 15 15  21 01 05.143   -15 46 50.15  .11725 1.1286 170.6 21.5 10.2  98
2026 08 15 16  21 00 43.429   -15 45 30.11  .11740 1.1287 170.5 21.5 10.7  98
2026 08 15 17  21 00 21.778   -15 44 10.13  .11754 1.1288 170.4 21.5 11.2  98
2026 08 15 18  21 00 00.189   -15 42 50.20  .11769 1.1289 170.3 21.5 11.6  98
2026 08 15 19  20 59 38.661   -15 41 30.34  .11784 1.1290 170.1 21.5 12.1  98
2026 08 15 20  20 59 17.196   -15 40 10.54  .11799 1.1291 170.0 21.5 12.6  98
2026 08 15 21  20 58 55.792   -15 38 50.81  .11814 1.1292 169.9 21.5 13.1  99
2026 08 15 22  20 58 34.450   -15 37 31.14  .11829 1.1293 169.8 21.5 13.6  99
2026 08 15 23  20 58 13.170   -15 36 11.53  .11844 1.1294 169.7 21.5 14.2  99
2026 08 16 00  20 57 51.951   -15 34 51.99  .11859 1.1295 169.5 21.6 14.7  99
2026 08 16 01  20 57 30.794   -15 33 32.52  .11874 1.1296 169.4 21.6 15.2  99
2026 08 16 02  20 57 09.699   -15 32 13.12  .11889 1.1297 169.3 21.6 15.7  99
2026 08 16 03  20 56 48.664   -15 30 53.78  .11904 1.1298 169.2 21.6 16.3  99
2026 08 16 04  20 56 27.691   -15 29 34.52  .11919 1.1299 169.1 21.6 16.8 100
2026 08 16 05  20 56 06.780   -15 28 15.33  .11934 1.1300 168.9 21.6 17.4 100
2026 08 16 06  20 55 45.929   -15 26 56.21  .11949 1.1301 168.8 21.6 18.0 100
2026 08 16 07  20 55 25.139   -15 25 37.16  .11965 1.1302 168.7 21.6 18.5 100
2026 08 16 08  20 55 04.411   -15 24 18.19  .11980 1.1303 168.6 21.6 19.1 100
2026 08 16 09  20 54 43.743   -15 22 59.29  .11995 1.1304 168.5 21.6 19.7 100
2026 08 16 10  20 54 23.136   -15 21 40.47  .12011 1.1305 168.3 21.6 20.3 100
2026 08 16 11  20 54 02.589   -15 20 21.73  .12026 1.1306 168.2 21.6 20.8 100
2026 08 16 12  20 53 42.104   -15 19 03.07  .12041 1.1307 168.1 21.6 21.4 100
2026 08 16 13  20 53 21.679   -15 17 44.48  .12057 1.1308 168.0 21.6 22.0 101
2026 08 16 14  20 53 01.314   -15 16 25.98  .12072 1.1309 167.9 21.7 22.6 101
2026 08 16 15  20 52 41.009   -15 15 07.55  .12088 1.1310 167.7 21.7 23.3 101
2026 08 16 16  20 52 20.765   -15 13 49.21  .12104 1.1311 167.6 21.7 23.9 101
2026 08 16 17  20 52 00.581   -15 12 30.95  .12119 1.1312 167.5 21.7 24.5 101
2026 08 16 18  20 51 40.457   -15 11 12.77  .12135 1.1313 167.4 21.7 25.1 101
2026 08 16 19  20 51 20.393   -15 09 54.68  .12151 1.1314 167.3 21.7 25.8 101
2026 08 16 20  20 51 00.389   -15 08 36.68  .12166 1.1315 167.2 21.7 26.4 101
2026 08 16 21  20 50 40.444   -15 07 18.75  .12182 1.1316 167.0 21.7 27.0 101
2026 08 16 22  20 50 20.560   -15 06 00.92  .12198 1.1317 166.9 21.7 27.7 101
2026 08 16 23  20 50 00.734   -15 04 43.18  .12214 1.1318 166.8 21.7 28.3 101